Regional Weather Roundup
Issued by NWS

Home | Current Version | Previous Version | Text Only | Print | Product List | Glossary Off
Versions: 1 2 3 4 5 6 7 8 9 10 11 12 13 14 15 16 17 18 19 20 21 22 23 24 25 26 27 28 29 30 31 32 33 34 35 36 37 38 39 40 41 42 43 44 45 46 47 48 49 50

000
ASUS45 KCYS 251410
RWRWY

WYOMING REGIONAL WEATHER ROUNDUP
NATIONAL WEATHER SERVICE CHEYENNE WY
800 AM MDT SAT MAR 25 2017

NOTE:  "FAIR" INDICATES FEW OR NO CLOUDS BELOW 12,000 FEET
WITH NO SIGNIFICANT WEATHER AND/OR OBSTRUCTIONS TO VISIBILITY.

WYZ001-251500-
YELLOWSTONE NATIONAL PARK

CITY           SKY/WX    TMP DP  RH WIND       PRES   REMARKS
LK YELLOWSTONE   N/A     30  30 100 E3        30.03F
W YELLOWSTONE  NOT AVBL

$$
WYZ002>013-054>058-071-098>099-251500-
NORTHERN WYOMING

CITY           SKY/WX    TMP DP  RH WIND       PRES   REMARKS
JACKSON        LGT RAIN  34  32  93 SW6       30.03F WCI  29
CODY           MOCLDY    46  29  51 W6        29.97R
GREYBULL       FAIR      40  33  76 NW5       29.93R
WORLAND        FAIR      37  36  96 CALM      29.93R
SHERIDAN       CLOUDY    42  36  79 CALM      29.93R
BUFFALO        FAIR      48  25  40 N5        29.95R
GILLETTE       FAIR      41  34  76 CALM      29.92R
HULETT         FAIR      46  30  53 SW8       29.93S
NEWCASTLE      FAIR      43  27  52 S12       29.95F

$$
WYZ014>020-022>026-101>103-251500-
CENTRAL WYOMING

CITY           SKY/WX    TMP DP  RH WIND       PRES   REMARKS
BIG PINEY      CLOUDY    31  30  96 CALM      30.04S
PINEDALE       CLOUDY    32  32 100 N7        30.05S WCI  26
DUBOIS         CLOUDY    32  30  93 NW14      30.00S WCI  22
LANDER         FAIR      37  27  67 SE7       29.96R WCI  32
RIVERTON       FAIR      39  31  72 W7        29.97R WCI  34
CASPER         FAIR      43  28  55 SW13      29.97F
DOUGLAS        FAIR      39  30  70 E3        29.98R

$$
WYZ021-027>030-104>119-251500-
SOUTHERN WYOMING

CITY           SKY/WX    TMP DP  RH WIND       PRES   REMARKS
EVANSTON       CLOUDY    37  24  59 N5        30.02S WCI  33
KEMMERER         N/A     32  27  80 N7        30.03S WCI  26
FORT BRIDGER   CLOUDY    37  31  79 CALM      30.05S
ROCK SPRINGS   FAIR      37  29  72 SE9       30.02F WCI  30
DIXON            N/A     31  24  75 CALM      30.10S
RAWLINS        FAIR      42  23  46 SW16      30.04S
SARATOGA       FAIR      37  23  56 SE10G21   30.07F WCI  30
LARAMIE        FAIR      38  22  52 W6        30.04S WCI  33
CHEYENNE       FAIR      38  29  70 SW8       30.03S WCI  32
TORRINGTON     FAIR      34  29  82 SE9       30.00R WCI  27
PINE BLUFFS    FAIR      27  25  93 S3        30.05S

$$



USA.gov is the U.S. government's official web portal to all federal, state and local government web resources and services.